Location: ?ejeti?ky
(50.4060°N, 14.9016°E)
Time: 07:25:35
(UTC+00:00)

N. Korean satellite - Pass Details

Date: 10 December 2021
Orbit: 446 x 491 km, 97.3° (Epoch: 18 January)

Event Time Altitude Azimuth Distance (km) Brightness Sun altitude
Rises 15:37:54 0° 179° (S) 2,505 10.6 -6.4°
Reaches altitude 10° 15:40:01 10° 185° (S) 1,624 9.7 -6.7°
Maximum altitude 15:43:23 47° 260° (W) 625 7.7 -7.1°
Drops below altitude 10° 15:46:41 10° 336° (NNW) 1,586 9.2 -7.6°
Sets 15:48:50 0° 343° (NNW) 2,485 10.1 -7.9°
